| time (UTC) | temp F | wind direction | speed knots | gust knots | rain 1hr in | rain 24hr in | rain mn in | humidity % | barometer mb |
| 20260506073037 | 73 | 237 | 3.5 | 6.1 | 0.00 | 0.00 | 0.00 | 40 | 1014.6 |
| 20260506072035 | 73 | 246 | 1.7 | 4.3 | 0.00 | 0.00 | 0.00 | 41 | 1014.7 |
| 20260506071053 | 72 | 249 | 2.6 | 6.1 | 0.00 | 0.00 | 0.00 | 44 | 1014.7 |
| 20260506062022 | 68 | 249 | 2.6 | 4.3 | 0.00 | 0.00 | 0.00 | 50 | 1014.8 |
| 20260506061020 | 65 | 224 | 0.9 | 4.3 | 0.00 | 0.00 | 0.00 | 54 | 1014.8 |
| 20260506051108 | 57 | 180 | 0.0 | 1.7 | 0.00 | 0.00 | 0.00 | 67 | 1014.8 |
| 20260506050105 | 56 | 204 | 0.9 | 2.6 | 0.00 | 0.00 | 0.00 | 70 | 1014.7 |
| 20260506045104 | 54 | 152 | 0.9 | 3.5 | 0.00 | 0.00 | 0.00 | 72 | 1014.7 |
| 20260506044121 | 54 | 158 | 0.9 | 3.5 | 0.00 | 0.00 | 0.00 | 72 | 1014.7 |
| 20260506043059 | 53 | 190 | 0.0 | 1.7 | 0.00 | 0.00 | 0.00 | 73 | 1014.5 |
| 20260506042117 | 52 | 195 | 0.9 | 1.7 | 0.00 | 0.00 | 0.00 | 74 | 1014.6 |
| 20260506041055 | 50 | 180 | 0.0 | 1.7 | 0.00 | 0.00 | 0.00 | 75 | 1014.6 |
| 20260506040053 | 50 | 225 | 0.0 | 1.7 | 0.00 | 0.00 | 0.00 | 76 | 1014.5 |
| 20260506035111 | 49 | 225 | 0.0 | 1.7 | 0.00 | 0.00 | 0.00 | 78 | 1014.3 |
| 20260506034049 | 48 | 0.0 | 0.9 | 0.00 | 0.00 | 0.00 | 78 | 1014.2 | |
| 20260506033047 | 47 | 0.0 | 0.0 | 0.00 | 0.00 | 0.00 | 77 | 1014.1 | |
| 20260506032045 | 47 | 0.0 | 0.0 | 0.00 | 0.00 | 0.00 | 76 | 1013.9 | |
| 20260506031043 | 47 | 0.0 | 0.0 | 0.00 | 0.00 | 0.00 | 75 | 1013.9 | |
| 20260506030140 | 48 | 0.0 | 0.0 | 0.00 | 0.00 | 0.00 | 75 | 1013.8 | |
| 20260506025058 | 48 | 0.0 | 0.0 | 0.00 | 0.00 | 0.00 | 74 | 1013.8 | |
| 20260506024036 | 49 | 0.0 | 0.0 | 0.00 | 0.00 | 0.00 | 75 | 1014.0 | |
| 20260506023034 | 49 | 225 | 0.0 | 1.7 | 0.00 | 0.00 | 0.00 | 76 | 1013.9 |
| 20260506022052 | 48 | 225 | 0.0 | 1.7 | 0.00 | 0.00 | 0.00 | 78 | 1013.8 |
| 20260506021050 | 47 | 0.0 | 0.9 | 0.00 | 0.00 | 0.00 | 78 | 1013.8 | |
| 20260506020028 | 47 | 0.0 | 0.0 | 0.00 | 0.00 | 0.00 | 77 | 1013.8 | |
| 20260506015025 | 47 | 0.0 | 0.0 | 0.00 | 0.00 | 0.00 | 76 | 1013.6 | |
| 20260506014023 | 48 | 0.0 | 0.0 | 0.00 | 0.00 | 0.00 | 76 | 1013.6 | |
| 20260506013042 | 47 | 0.0 | 0.0 | 0.00 | 0.00 | 0.00 | 74 | 1013.4 | |
| 20260506012019 | 48 | 0.0 | 0.0 | 0.00 | 0.00 | 0.00 | 74 | 1013.4 | |
| 20260506011017 | 48 | 0.0 | 0.0 | 0.00 | 0.00 | 0.00 | 73 | 1013.4 | |
| 20260506010015 | 48 | 0.0 | 0.0 | 0.00 | 0.00 | 0.00 | 72 | 1013.4 | |
| 20260506005113 | 49 | 0.0 | 0.0 | 0.00 | 0.00 | 0.00 | 72 | 1013.4 | |
| 20260506004111 | 49 | 0.0 | 0.0 | 0.00 | 0.00 | 0.00 | 71 | 1013.4 | |
| 20260506003129 | 49 | 0.0 | 0.0 | 0.00 | 0.00 | 0.00 | 70 | 1013.5 | |
| 20260506002107 | 50 | 0.0 | 0.0 | 0.00 | 0.00 | 0.00 | 69 | 1013.4 | |
| 20260506001104 | 51 | 0.0 | 0.0 | 0.00 | 0.00 | 0.00 | 68 | 1013.4 | |
| 20260505235100 | 51 | 0.0 | 0.0 | 0.00 | 0.00 | 0.00 | 64 | 1013.4 | |
| 20260505234058 | 52 | 0.0 | 0.0 | 0.00 | 0.00 | 0.00 | 62 | 1013.3 | |
| 20260505233056 | 53 | 0.0 | 0.0 | 0.00 | 0.00 | 0.00 | 61 | 1013.3 | |
| 20260505232054 | 54 | 0.0 | 0.0 | 0.00 | 0.00 | 0.00 | 57 | 1013.3 | |
| 20260505231052 | 56 | 0.0 | 0.0 | 0.00 | 0.00 | 0.00 | 53 | 1013.3 | |
| 20260505230050 | 57 | 0.0 | 0.0 | 0.00 | 0.00 | 0.00 | 52 | 1013.3 | |
| 20260505225048 | 57 | 0.0 | 0.0 | 0.00 | 0.00 | 0.00 | 51 | 1013.3 | |
| 20260505224046 | 57 | 242 | 0.0 | 2.6 | 0.00 | 0.00 | 0.00 | 53 | 1013.3 |
| 20260505223043 | 55 | 227 | 1.7 | 4.3 | 0.00 | 0.00 | 0.00 | 59 | 1013.1 |
| 20260505222042 | 53 | 225 | 0.0 | 1.7 | 0.00 | 0.00 | 0.00 | 64 | 1012.9 |
| 20260505221039 | 52 | 0.0 | 0.9 | 0.00 | 0.00 | 0.00 | 65 | 1012.8 | |
| 20260505220037 | 52 | 0.0 | 0.9 | 0.00 | 0.00 | 0.00 | 65 | 1012.8 | |
| 20260505215035 | 52 | 225 | 0.0 | 1.7 | 0.00 | 0.00 | 0.00 | 66 | 1012.9 |
| 20260505214213 | 52 | 0.0 | 0.9 | 0.00 | 0.00 | 0.00 | 66 | 1012.6 | |
| 20260505213031 | 53 | 0.0 | 0.9 | 0.00 | 0.00 | 0.00 | 65 | 1012.6 | |
| 20260505212028 | 53 | 0.0 | 0.0 | 0.00 | 0.00 | 0.00 | 65 | 1012.5 | |
| 20260505211026 | 53 | 0.0 | 0.0 | 0.00 | 0.00 | 0.00 | 65 | 1012.4 | |
| 20260505210024 | 53 | 0.0 | 0.0 | 0.00 | 0.00 | 0.00 | 64 | 1012.5 | |
| 20260505205022 | 54 | 0.0 | 0.0 | 0.00 | 0.00 | 0.00 | 63 | 1012.5 | |
| 20260505204020 | 54 | 0.0 | 0.0 | 0.00 | 0.00 | 0.00 | 63 | 1012.5 | |
| 20260505203038 | 55 | 0.0 | 0.0 | 0.00 | 0.00 | 0.00 | 59 | 1012.4 | |
| 20260505202016 | 55 | 0.0 | 0.0 | 0.00 | 0.00 | 0.00 | 59 | 1012.3 | |
| 20260505201114 | 55 | 0.0 | 0.0 | 0.00 | 0.00 | 0.00 | 58 | 1012.4 | |
| 20260505200112 | 55 | 0.0 | 0.0 | 0.00 | 0.00 | 0.00 | 59 | 1012.3 | |
| 20260505195110 | 56 | 0.0 | 0.0 | 0.00 | 0.00 | 0.00 | 59 | 1012.2 | |
| 20260505194108 | 56 | 0.0 | 0.0 | 0.00 | 0.00 | 0.00 | 56 | 1012.1 | |
| 20260505193106 | 57 | 0.0 | 0.0 | 0.00 | 0.00 | 0.00 | 55 | 1012.2 | |
| 20260505192104 | 58 | 0.0 | 0.0 | 0.00 | 0.00 | 0.00 | 54 | 1012.1 | |
| 20260505191101 | 58 | 0.0 | 0.0 | 0.00 | 0.00 | 0.00 | 52 | 1012.1 | |
| 20260505190100 | 59 | 0.0 | 0.0 | 0.00 | 0.00 | 0.00 | 51 | 1012.1 | |
| 20260505185058 | 60 | 0.0 | 0.0 | 0.00 | 0.00 | 0.00 | 50 | 1012.0 | |
| 20260505184055 | 62 | 0.0 | 0.0 | 0.00 | 0.00 | 0.00 | 47 | 1012.0 | |
| 20260505183053 | 63 | 0.0 | 0.0 | 0.00 | 0.00 | 0.00 | 44 | 1012.0 | |
| 20260505182051 | 64 | 0.0 | 0.0 | 0.00 | 0.00 | 0.00 | 41 | 1011.9 | |
| 20260505181049 | 65 | 225 | 0.0 | 1.7 | 0.00 | 0.00 | 0.00 | 39 | 1011.9 |
| 20260505180046 | 66 | 0.0 | 0.0 | 0.00 | 0.00 | 0.00 | 37 | 1011.8 | |
| 20260505175044 | 67 | 0.0 | 1.7 | 0.00 | 0.00 | 0.00 | 37 | 1011.7 | |
| 20260505174042 | 69 | 0.0 | 0.0 | 0.00 | 0.00 | 0.00 | 34 | 1011.9 | |
| 20260505173041 | 70 | 0.0 | 0.0 | 0.00 | 0.00 | 0.00 | 32 | 1012.0 | |
| 20260505172038 | 72 | 135 | 0.0 | 1.7 | 0.00 | 0.00 | 0.00 | 31 | 1011.8 |
| 20260505171056 | 74 | 180 | 0.0 | 1.7 | 0.00 | 0.00 | 0.00 | 26 | 1011.8 |
| 20260505170034 | 75 | 225 | 0.0 | 1.7 | 0.00 | 0.00 | 0.00 | 25 | 1011.8 |
| 20260505165032 | 76 | 225 | 0.0 | 1.7 | 0.00 | 0.00 | 0.00 | 24 | 1011.8 |
| 20260505164030 | 77 | 225 | 0.0 | 1.7 | 0.00 | 0.00 | 0.00 | 22 | 1011.9 |
| 20260505163028 | 78 | 182 | 1.7 | 3.5 | 0.00 | 0.00 | 0.00 | 22 | 1012.1 |
| 20260505162025 | 79 | 162 | 1.7 | 5.2 | 0.00 | 0.00 | 0.00 | 22 | 1011.9 |
| 20260505161104 | 79 | 225 | 1.7 | 2.6 | 0.00 | 0.00 | 0.00 | 22 | 1012.1 |
| 20260505153015 | 80 | 192 | 1.7 | 4.3 | 0.00 | 0.00 | 0.00 | 20 | 1012.4 |
| 20260505152113 | 81 | 207 | 1.7 | 3.5 | 0.00 | 0.00 | 0.00 | 20 | 1012.4 |
| 20260505151111 | 81 | 233 | 0.9 | 2.6 | 0.00 | 0.00 | 0.00 | 20 | 1012.5 |
| 20260505150109 | 82 | 228 | 2.6 | 4.3 | 0.00 | 0.00 | 0.00 | 14 | 1012.5 |
| 20260505124039 | 86 | 198 | 3.5 | 10.4 | 0.00 | 0.00 | 0.00 | 14 | 1014.0 |
| 20260505123037 | 86 | 243 | 4.3 | 7.0 | 0.00 | 0.00 | 0.00 | 14 | 1014.0 |
| 20260505122035 | 86 | 167 | 3.5 | 5.2 | 0.00 | 0.00 | 0.00 | 14 | 1014.2 |
| 20260505121033 | 86 | 209 | 3.5 | 7.0 | 0.00 | 0.00 | 0.00 | 13 | 1014.3 |
| 20260505120031 | 86 | 176 | 2.6 | 5.2 | 0.00 | 0.00 | 0.00 | 13 | 1014.4 |
| 20260505115029 | 85 | 214 | 3.5 | 6.1 | 0.00 | 0.00 | 0.00 | 13 | 1014.5 |
| 20260505114026 | 85 | 182 | 4.3 | 9.6 | 0.00 | 0.00 | 0.00 | 14 | 1014.6 |
| 20260505113025 | 85 | 187 | 2.6 | 6.1 | 0.00 | 0.00 | 0.00 | 13 | 1014.8 |
| 20260505112022 | 85 | 258 | 3.5 | 7.0 | 0.00 | 0.00 | 0.00 | 13 | 1014.9 |
| 20260505111021 | 85 | 170 | 3.5 | 7.0 | 0.00 | 0.00 | 0.00 | 13 | 1015.0 |
| 20260505102150 | 84 | 185 | 4.3 | 9.6 | 0.00 | 0.00 | 0.00 | 18 | 1015.5 |
| 20260505101128 | 84 | 234 | 1.7 | 6.1 | 0.00 | 0.00 | 0.00 | 18 | 1015.7 |
| 20260505100126 | 84 | 163 | 2.6 | 4.3 | 0.00 | 0.00 | 0.00 | 20 | 1015.8 |
| 20260505095104 | 83 | 177 | 1.7 | 3.5 | 0.00 | 0.00 | 0.00 | 20 | 1015.9 |
| 20260505094121 | 82 | 196 | 2.6 | 4.3 | 0.00 | 0.00 | 0.00 | 20 | 1015.9 |
| 20260505093059 | 82 | 187 | 1.7 | 3.5 | 0.00 | 0.00 | 0.00 | 20 | 1016.1 |
| 20260505092138 | 82 | 322 | 3.5 | 6.1 | 0.00 | 0.00 | 0.00 | 20 | 1016.1 |
| 20260505091055 | 82 | 227 | 3.5 | 7.0 | 0.00 | 0.00 | 0.00 | 20 | 1016.2 |
| 20260505090113 | 82 | 126 | 2.6 | 5.2 | 0.00 | 0.00 | 0.00 | 20 | 1016.3 |
| 20260505085051 | 82 | 175 | 2.6 | 5.2 | 0.00 | 0.00 | 0.00 | 20 | 1016.3 |
| 20260505084049 | 81 | 236 | 1.7 | 3.5 | 0.00 | 0.00 | 0.00 | 23 | 1016.5 |
| 20260505083107 | 80 | 245 | 1.7 | 3.5 | 0.00 | 0.00 | 0.00 | 23 | 1016.6 |
| 20260505082105 | 79 | 201 | 1.7 | 3.5 | 0.00 | 0.00 | 0.00 | 24 | 1016.7 |
| 20260505081042 | 79 | 140 | 2.6 | 5.2 | 0.00 | 0.00 | 0.00 | 25 | 1016.6 |
| 20260505080041 | 79 | 126 | 1.7 | 5.2 | 0.00 | 0.00 | 0.00 | 27 | 1016.7 |
| 20260505075038 | 79 | 121 | 0.9 | 2.6 | 0.00 | 0.00 | 0.00 | 29 | 1016.7 |